Location: Duffs
(47.4500°N, 53.1167°W)
Time: 11:07:04
(UTC+00:00)

Envisat - Pass Details

Date: 28 May 2022
Orbit: 764 x 765 km, 98.2° (Epoch: 02 July)

Event Time Altitude Azimuth Distance (km) Brightness Sun altitude
Rises 06:53:56 0° 28° (NNE) 3,242 7.9 -7.2°
Reaches altitude 10° 06:57:06 10° 49° (NE) 2,310 7.3 -6.8°
Maximum altitude 07:00:20 17° 89° (E) 1,873 5.8 -6.4°
Drops below altitude 10° 07:03:33 10° 129° (SE) 2,298 5.6 -6.0°
Sets 07:06:40 0° 149° (SSE) 3,217 6.1 -5.6°
